Regional Weather Roundup
Issued by NWS

Home | Current Version | Previous Version | Graphics & Text | Print | Product List | Glossary Off
Versions: 1 2 3 4 5 6 7 8 9 10 11 12 13 14 15 16 17 18 19 20 21 22 23 24 25 26 27 28 29 30 31 32 33 34 35 36 37 38 39 40 41 42 43 44 45 46 47 48 49 50

000
ASUS43 KTOP 161608
RWRKS

WEATHER ROUNDUP FOR KANSAS
NATIONAL WEATHER SERVICE GOODLAND KS
1000 AM CST MON JAN 16 2017

NOTE:  "FAIR" INDICATES FEW OR NO CLOUDS BELOW 12,000 FEET WITH NO
SIGNIFICANT WEATHER AND/OR OBSTRUCTIONS TO VISIBILITY.

KSZ001>006-013>018-027>032-041>047-161700-
NORTHWEST KANSAS

CITY           SKY/WX    TMP DP  RH WIND       PRES   REMARKS
GOODLAND       LGT SNOW  31  31 100 N18       29.91R FOG     WCI  19
HAYS           CLOUDY    32  31  96 N12       29.87R WCI  23
HILL CITY      FRZ RAIN  33  32  96 N15       29.90R WCI  23
RUSSELL        CLOUDY    32  31  96 N10       29.85R WCI  24
$$

KSZ061>065-074>080-084>089-161700-
SOUTHWEST KANSAS

CITY           SKY/WX    TMP DP  RH WIND       PRES   REMARKS
DODGE CITY     CLOUDY    32  31  96 N15       29.86R FOG     WCI  22
ELKHART          N/A     31  26  82 NW6         N/A
GREAT BEND     MIX PCPN  32  31  96 N10       29.86R FOG     WCI  24
LIBERAL        CLOUDY    34  28  80 MISG      29.90R
PRATT          CLOUDY    30  29  98 CALM      29.85R FOG
$$

KSZ066>073-081>083-090>101-161700-
SOUTHEAST KANSAS

CITY           SKY/WX    TMP DP  RH WIND       PRES   REMARKS
CHANUTE        CLOUDY    50  46  86 S18G26    29.89R
HUTCHINSON     FOG       34  33  96 NW3       29.85R VSB 1
MEDICINE LODGE   N/A     34  33  96 W5        29.87R
NEWTON         CLOUDY    40  39  97 S18       29.83R WCI  31
PARSONS        CLOUDY    50  47  89 MISG      29.91R
WICHITA INTL   LGT RAIN  37  37 100 S14       29.86R FOG     WCI  28
WICHITA JABRA  CLOUDY    39  38  96 SW17G24   29.85R WCI  30
WICHITA MCCONL LGT RAIN  37  37 100 SW14      29.85R FOG     WCI  29
WINFIELD       CLOUDY    39  38  96 S16       29.89R WCI  30
$$

KSZ007>012-019>026-033>040-048>060-102>105-161700-
NORTHEAST KANSAS

CITY           SKY/WX    TMP DP  RH WIND       PRES   REMARKS
CONCORDIA      CLOUDY    32  32 100 NE10      29.87R FOG     WCI  24
EMPORIA        PTSUNNY   48  46  93 S21G28    29.83S
LAWRENCE       CLOUDY    38  38 100 E9        29.88S
MANHATTAN      CLOUDY    36  35  96 NE9       29.86R FOG
MARYSVILLE     LGT RAIN  32  32 100 NE3       29.88S
OLATHE IND     LGT RAIN  44  44 100 E8        29.88R FOG
OLATHE EXE     FOG       41  41 100 E8        29.88R VSB 1/2
SALINA         FOG       34  32  92 N8        29.86R VSB 1
TOPEKA BILLARD CLOUDY    38  36  92 E7        29.87S
TOPEKA FORBES  CLOUDY    40  39  97 E7        29.86R
$$



USA.gov is the U.S. government's official web portal to all federal, state and local government web resources and services.